Flag for Italy Weather past 2 weeks in Naples, Italy

Now
79 °F

Sunny.


Feels Like: 81 °F
Forecast: 71 / 87 °F
Wind: 7 mph from South

Location: Naples / Capodichino

Current Time: Aug 27, 2014 at 7:55:32 PM

Latest Report: Aug 27, 2014 at 6:50 PM


Visibility: 10 mi

Pressure: 29.92 "Hg

Humidity: 74%

Dew point: 70 °F

Location of NaplesLocation

Historic Weather in Naples — Graph

°F

Naples temperature yesterday

Maximum temperature yesterday: 82 °F (at 1:50 PM)
Minimum temperature yesterday: 68 °F (at 3:50 AM)
Average temperature yesterday: 76 °F

Past Weeks' High & Low Weather Summary

 TemperatureHumidityPressure
High88 °F (Aug 12, 5:20 PM)89% (Aug 21, 1:20 AM)30.07 "Hg (Aug 21, 1:20 AM)
Low64 °F (Aug 17, 4:50 AM)27% (Aug 13, 4:20 PM)29.83 "Hg (Aug 13, 5:50 PM)
Average77 °F64%29.97 "Hg
* Reported Aug 12 5:20 PM — Aug 27 5:50 PM, Naples, Weather by CustomWeather, © 2014

Note: Actual official high and low records may vary slightly from our data, if they occured in-between our weather recording intervals... More about our weather records

Advertising

Naples weather history for previous 24 hours

 ConditionsComfort  
Time TempWeatherWind HumidityBarometerVisibility
5:50 PM
Aug 27
82 °FPassing clouds.8 mph62%29.92 "HgN/A
4:50 PM81 °FSunny.9 mph66%29.92 "Hg10 mi
4:20 PM82 °FPassing clouds.9 mph62%29.92 "HgN/A
3:50 PM82 °FPassing clouds.9 mph62%29.92 "HgN/A
3:20 PM81 °FSunny.12 mph66%29.92 "Hg10 mi
2:50 PM81 °FPassing clouds.13 mph66%29.92 "HgN/A
2:20 PM82 °FSunny.12 mph62%29.95 "Hg10 mi
1:50 PM82 °FPassing clouds.10 mph58%29.95 "HgN/A
1:20 PM82 °FPassing clouds.9 mph55%29.95 "HgN/A
12:50 PM82 °FPassing clouds.8 mph51%29.95 "HgN/A
12:20 PM82 °FPassing clouds.8 mph55%29.95 "HgN/A
11:50 AM82 °FPassing clouds.7 mph55%29.95 "HgN/A
11:20 AM81 °FPassing clouds.6 mph58%29.95 "HgN/A
10:50 AM82 °FPassing clouds.5 mph48%29.95 "HgN/A
10:20 AM81 °FSunny.2 mph51%29.95 "Hg10 mi
9:50 AM81 °FPassing clouds.3 mph51%29.95 "HgN/A
9:20 AM81 °FSunny.1 mph58%29.95 "Hg10 mi
8:50 AM77 °FSunny.2 mph69%29.95 "Hg10 mi
8:20 AM77 °FSunny.1 mph69%29.95 "Hg10 mi
7:50 AM75 °FSunny.No wind69%29.95 "Hg10 mi
7:20 AM72 °FClear.2 mph73%29.95 "Hg10 mi
6:50 AM68 °FClear.No wind83%29.95 "Hg10 mi
6:20 AM70 °FClear.1 mph78%29.95 "Hg10 mi
5:50 AM68 °FClear.No wind78%29.95 "Hg10 mi
5:20 AM68 °FClear.1 mph83%29.95 "Hg10 mi
4:50 AM68 °FClear.No wind83%29.95 "Hg10 mi
4:20 AM68 °FClear.1 mph83%29.95 "Hg10 mi
3:50 AM68 °FClear.2 mph83%29.95 "Hg10 mi
3:20 AM70 °FClear.1 mph78%29.98 "Hg10 mi
2:50 AM72 °FClear.1 mph73%29.98 "Hg10 mi
1:50 AM72 °FClear.No wind73%29.98 "Hg10 mi
1:20 AM72 °FClear.No wind73%29.98 "Hg10 mi
12:50 AM73 °FClear.No wind69%30.01 "Hg10 mi
12:20 AM73 °FClear.1 mph69%29.98 "Hg10 mi
11:50 PM
Aug 26
73 °FClear.1 mph69%29.98 "Hg10 mi
11:20 PM73 °FClear.1 mph69%29.98 "Hg10 mi
10:50 PM75 °FClear.No wind65%29.98 "Hg10 mi
10:20 PM75 °FClear.1 mph65%29.98 "Hg10 mi
9:50 PM75 °FClear.No wind65%29.98 "Hg10 mi
9:20 PM75 °FClear.2 mph65%30.01 "Hg10 mi
8:50 PM75 °FClear.5 mph65%29.98 "Hg10 mi
8:20 PM77 °FPassing clouds.5 mph61%29.98 "HgN/A
7:50 PM77 °FSunny.7 mph61%29.98 "Hg10 mi
7:20 PM79 °FPassing clouds.6 mph54%29.98 "HgN/A
Weather by CustomWeather, © 2014

See weather overviewHow to use our weather pages